Weather History for KSTS - February, 2013

Change the Weather History Date:

Tuesday, February 19, 2013

  Actual Average Record
Temperature  
Mean Temperature 43 °F 50 °F  
Max Temperature 52 °F 61 °F 67 °F (2000)
Min Temperature 34 °F 40 °F 33 °F (2011)
Degree Days  
Heating Degree Days 22    
Month to date heating degree days 289  
Since 1 July heating degree days 1953  
Cooling Degree Days 0    
Month to date cooling degree days 0  
Year to date cooling degree days 0  
Moisture  
Dew Point 35 °F    
Average Humidity 71    
Maximum Humidity 92    
Minimum Humidity 50    
Precipitation  
Precipitation 0.17 in 0.26 in 0.82 in (2001)
Month to date precipitation 0.26 4.25  
Year to date precipitation 1.19 11.30  
Since 1 July precipitation 23.60  
Sea Level Pressure  
Sea Level Pressure 29.82 in    
Wind  
Wind Speed 7 mph (WNW)    
Max Wind Speed 20 mph    
Max Gust Speed 25 mph    
Visibility 9 miles    
Events Fog , Rain    
T = Trace of Precipitation, MM = Missing Value Source: NWS Daily Summary

Daily Weather History Graph

Daily Weather History Graph

Search for Another Location

Airport or City:

Trip Planner

Search our weather history database for the weather conditions in past years. The results will help you decide how hot, cold, wet, or windy it might be!

Date:

Astronomy

Feb. 19, 2013 Rise Set
Actual Time 6:56 AM PST 5:54 PM PST
Civil Twilight 6:29 AM PST 6:21 PM PST
Nautical Twilight 5:58 AM PST 6:51 PM PST
Astronomical Twilight 5:27 AM PST 7:22 PM PST
Moon 12:32 PM PST (2/19) 2:30 AM PST (2/19)
Length of Visible Light 11h 51m
Length of Day
10h 57m
Waxing Gibbous, 68% of the Moon is Illuminated
Feb 19
Waxing Gibbous
Feb 25
Full
Mar 4
Last Quarter
Mar 11
New
Mar 19
First Quarter

Hourly Weather History & Observations

Time (PST) Temp. Windchill Dew Point Humidity Pressure Visibility Wind Dir Wind Speed Gust Speed Precip Events Conditions
12:53 AM 37.9 °F - 33.1 °F 83% 29.94 in 10.0 mi Calm Calm - N/A   Clear
1:53 AM 35.1 °F 30.1 °F 30.9 °F 85% 29.92 in 10.0 mi SE 5.8 mph - N/A   Clear
2:27 AM 37.4 °F 32.8 °F 33.8 °F 87% 29.92 in 10.0 mi ESE 5.8 mph - N/A   Mostly Cloudy
2:53 AM 37.9 °F 35.5 °F 34.0 °F 86% 29.90 in 10.0 mi SE 3.5 mph - N/A   Overcast
3:23 AM 39.2 °F - 33.8 °F 81% 29.90 in 10.0 mi Calm Calm - N/A   Overcast
3:45 AM 39.2 °F - 35.6 °F 87% 29.90 in 7.0 mi Calm Calm - 0.00 in Rain Light Rain
3:53 AM 39.0 °F - 36.0 °F 89% 29.89 in 10.0 mi Calm Calm - 0.00 in   Overcast
4:39 AM 39.2 °F - 37.4 °F 93% 29.89 in 10.0 mi Calm Calm - 0.00 in   Overcast
4:53 AM 39.0 °F - 37.0 °F 93% 29.87 in 10.0 mi Calm Calm - 0.00 in   Overcast
5:53 AM 41.0 °F 38.0 °F 37.9 °F 89% 29.84 in 6.0 mi SSE 4.6 mph - 0.01 in Rain Light Rain
6:19 AM 39.2 °F - 39.2 °F 100% 29.84 in 10.0 mi Calm Calm - 0.00 in   Overcast
6:42 AM 41.0 °F - 39.2 °F 93% 29.83 in 6.0 mi Calm Calm - 0.00 in Rain Light Rain
6:53 AM 42.1 °F 40.2 °F 39.9 °F 92% 29.81 in 4.0 mi SE 3.5 mph - 0.01 in Rain Light Rain
6:58 AM 42.8 °F 39.3 °F 39.2 °F 87% 29.82 in 4.0 mi SE 5.8 mph - 0.00 in Rain Light Rain
7:53 AM 43.0 °F 40.3 °F 39.9 °F 89% 29.80 in 4.0 mi South 4.6 mph - 0.08 in Rain Light Rain
8:53 AM 44.1 °F 42.5 °F 41.0 °F 89% 29.79 in 4.0 mi South 3.5 mph - 0.07 in   Overcast
9:00 AM 44.6 °F 42.2 °F 41.0 °F 87% 29.82 in 10.0 mi SW 4.6 mph - N/A Fog Patches of Fog
9:53 AM 46.4 °F 44.3 °F 39.2 °F 76% 29.80 in 10.0 mi WSW 4.6 mph - N/A   Mostly Cloudy
10:00 AM 46.4 °F 44.3 °F 39.2 °F 76% 29.80 in 10.0 mi WSW 4.6 mph - N/A   Overcast
10:07 AM 46.4 °F 45.2 °F 39.2 °F 76% 29.80 in 10.0 mi WSW 3.5 mph - N/A   Mostly Cloudy
10:53 AM 46.9 °F - 37.0 °F 68% 29.78 in 10.0 mi West 10.4 mph - N/A   Overcast
11:33 AM 44.6 °F 37.2 °F 37.4 °F 76% 29.79 in 10.0 mi NNW 17.3 mph 21.9 mph 0.00 in Rain Light Rain
11:53 AM 46.9 °F - 37.9 °F 71% 29.77 in 10.0 mi North 12.7 mph - 0.00 in   Mostly Cloudy
12:53 PM 48.9 °F - 34.0 °F 56% 29.75 in 10.0 mi North 9.2 mph - N/A   Mostly Cloudy
1:53 PM 48.0 °F - 32.0 °F 54% 29.73 in 10.0 mi NW 8.1 mph - N/A   Mostly Cloudy
2:53 PM 48.9 °F - 30.9 °F 50% 29.72 in 10.0 mi NNW 19.6 mph 25.3 mph N/A   Mostly Cloudy
4:53 PM 46.9 °F - 30.9 °F 54% 29.73 in 10.0 mi NW 6.9 mph 17.3 mph N/A   Scattered Clouds
5:53 PM 43.0 °F 38.2 °F 30.0 °F 60% 29.74 in 10.0 mi NW 8.1 mph - N/A   Scattered Clouds
6:53 PM 39.0 °F 34.0 °F 28.9 °F 67% 29.76 in 10.0 mi NW 6.9 mph - N/A   Partly Cloudy
7:53 PM 39.9 °F 35.8 °F 30.0 °F 68% 29.78 in 10.0 mi North 5.8 mph - N/A   Clear
8:53 PM 39.0 °F 31.4 °F 30.9 °F 73% 29.78 in 10.0 mi NW 12.7 mph - N/A   Clear
9:53 PM 37.0 °F 31.6 °F 30.9 °F 79% 29.81 in 10.0 mi NW 6.9 mph - N/A   Clear
10:53 PM 36.0 °F 33.3 °F 30.0 °F 79% 29.82 in 10.0 mi WNW 3.5 mph - N/A   Clear
11:53 PM 36.0 °F 30.3 °F 30.0 °F 79% 29.83 in 10.0 mi NNW 6.9 mph - N/A   Clear